{"data":{"norad_id":58495,"epoch":"2026-05-24T20:48:04.013568Z","epoch_age_seconds":96756,"freshness":"FRESH","line1":"1 58495U 23186Y   26144.86671312 -.00000605  00000+0 -12441-4 0  9990","line2":"2 58495  43.0043 353.6787 0001505 268.1966  91.8713 15.27582796137704","mean_motion":15.27582796,"eccentricity":0.0001505,"inclination_deg":43.0043,"raan_deg":353.6787,"arg_perigee_deg":268.1966,"mean_anomaly_deg":91.8713,"bstar":-1.2441e-5,"rev_number":13770,"period_min":94.266576173197,"perigee_km":482.00811657513,"apogee_km":484.07333107,"semimajor_km":6861.1777238226,"source":"CELESTRAK","updated_at":"2026-05-25T13:38:18.654726Z"}}